Regional Weather Roundup
Issued by NWS

Home | Current Version | Previous Version | Text Only | Print | Product List | Glossary Off
Versions: 1 2 3 4 5 6 7 8 9 10 11 12 13 14 15 16 17 18 19 20 21 22 23 24 25 26 27 28 29 30 31 32 33 34 35 36 37 38 39 40 41 42 43 44 45 46 47 48 49 50

000
ASUS43 KFSD 051310
RWRSD

WEATHER ROUNDUP FOR SOUTH DAKOTA
NATIONAL WEATHER SERVICE SIOUX FALLS SD
700 AM CST MON DEC 05 2016

NOTE: "FAIR" INDICATES FEW OR NO CLOUDS BELOW 12,000 FEET WITH NO
SIGNIFICANT WEATHER AND/OR OBSTRUCTIONS TO VISIBILITY.


SDZ001>005-009-010-012>017-051400-
NORTHWEST AND NORTH CENTRAL SOUTH DAKOTA

CITY           SKY/WX    TMP DP  RH WIND       PRES   REMARKS
BUFFALO          N/A     32  28  85 NW23      29.46S WCI  19
FAITH            N/A     29  25  85 NW18      29.48S WCI  16
MOBRIDGE       PTCLDY    29  22  75 E10       29.46F WCI  20
$$

SDZ012>016-024>037-041>051-057-063-072>074-051400-
SOUTHWEST AND SOUTH CENTRAL SOUTH DAKOTA

CITY           SKY/WX    TMP DP  RH WIND       PRES   REMARKS
RAPID CTY ARPT PTCLDY    34  28  79 NW30G39   29.49S WCI  20
PIERRE         PTCLDY    23  19  85 E3        29.47F
CUSTER         CLOUDY    28  20  71 NW5       29.45S WCI  23
ELLSWORTH AFB  FLURRIES  33  31  90 NW29G37   29.49R WCI  20
PHILIP         CLOUDY    24  22  91 NW8       29.49R WCI  15
PINE RIDGE     CLEAR     32  24  72 CALM      29.49S
SPEARFISH      LGT SNOW  30  30 100 MISG      29.55R VSB 3/4
WINNER         FAIR      41  23  48 SW12      29.47F
$$

SDZ004>011-016>023-039-040-051400-
NORTHEAST SOUTH DAKOTA

CITY           SKY/WX    TMP DP  RH WIND       PRES   REMARKS
ABERDEEN       CLEAR     21  18  88 E5        29.56F WCI  15
WATERTOWN      PTCLDY    32  26  78 SE7       29.57F WCI  26
BROOKINGS      PTCLDY    32  29  88 SE14      29.57F WCI  22
SISSETON         N/A     22  21  96 CALM      29.62F
$$

SDZ017-020-022-023-036>040-048>070-051400-
SOUTHEAST SOUTH DAKOTA

CITY           SKY/WX    TMP DP  RH WIND       PRES   REMARKS
SIOUX FALLS    CLOUDY    36  30  79 S15       29.61F
HURON          CLOUDY    29  26  89 SE7       29.53F WCI  22
CHAMBERLAIN    CLOUDY    31  26  80 SE3       29.49F
MITCHELL       CLOUDY    33  28  81 SE7       29.55F WCI  27
YANKTON        CLOUDY    37  27  65 SE8       29.60F
$$

ABBREVIATIONS USED IN REMARKS
   TC - TEMPERATURE IN CELSIUS
  WCI - WIND CHILL INDEX
   HX - HEAT INDEX
  VSB - VISIBILITY





USA.gov is the U.S. government's official web portal to all federal, state and local government web resources and services.